This demonstration page uses our WeatherBlox Daily Observations layout. Learn more.

39.29038, -76.61219

Hourly Observations for July 7, 2020

Temp ( °F °C ) Dew Point ( °F °C ) Humidity (%) Winds ( mph kmh ) Pressure ( in mb ) Visibility ( mi km ) Precip ( " mm )
12:28 am 00:28 Cloudy with Heavy Rain 71 21.7 69 20.6 94 94 SSE 9 15 30.1 1019 1.75 2.816345 0.09 2.286
12:30 am 00:30 Cloudy with Heavy Thunderstorms 71 21.7 68 20 90 90 SSE 10 17 30.09 1019 1.75 2.816345 0.13 3.302
12:38 am 00:38 Cloudy with Thunderstorms 71 21.7 68 20 90 90 S 10 17 30.08 1019 4 6.43736 0.17 4.318
12:54 am 00:54 Cloudy with Light Thunderstorms 71 21.7 68 20 90 90 SSE 14 22 30.06 1018 5 8.0467 0.3 7.62
12:58 am 00:58 Cloudy with Light Rain 71 21.7 68 20 90 90 S 12 19 30.05 1018 8 12.87472 0.001 0.001
1:54 am 01:54 Mostly Cloudy 71 21.7 68 20 90 90 SSW 7 11 30.03 1017 10 16.0934 0.01 0.254
2:54 am 02:54 Mostly Cloudy 71 21.7 68 20 90 90 Calm 30.02 1017 10 16.0934 0 0
3:54 am 03:54 Mostly Cloudy 71 21.7 68 20 90 90 SW 3 6 30.03 1017 10 16.0934 0 0
4:54 am 04:54 Mostly Cloudy 71 21.7 68 20 90 90 NNE 5 7 30.04 1017 10 16.0934 0 0
5:54 am 05:54 Partly Cloudy 71 21.7 68 20 90 90 NNE 3 6 30.05 1018 10 16.0934 0 0
6:54 am 06:54 Mostly Sunny 73 22.8 69 20.6 87 87 ENE 6 9 30.06 1018 10 16.0934 0 0
7:54 am 07:54 Mostly Cloudy 75 23.9 69 20.6 82 82 ENE 8 13 30.06 1018 10 16.0934 0 0
8:24 am 08:24 Cloudy 74 23.3 70 21.1 88 88 ESE 10 17 30.06 1018 10 16.0934 0 0
8:54 am 08:54 Cloudy 74 23.3 70 21.1 88 88 E 9 15 30.07 1018 10 16.0934 0 0
9:01 am 09:01 Cloudy 74 23.3 69 20.6 85 85 E 9 15 30.06 1018 10 16.0934 0 0
9:54 am 09:54 Cloudy 76 24.4 70 21.1 82 82 E 8 13 30.06 1018 10 16.0934 0 0
10:45 am 10:45 Cloudy 78 25.6 70 21.1 76 76 E 8 13 30.06 1018 10 16.0934 0 0
10:54 am 10:54 Cloudy 79 26.1 69 20.6 72 72 E 8 13 30.06 1018 10 16.0934 0 0
11:54 am 11:54 Mostly Cloudy 79 26.1 69 20.6 72 72 E 7 11 30.06 1018 10 16.0934 0 0
12:54 pm 12:54 Cloudy 80 26.7 70 21.1 71 71 ESE 7 11 30.06 1018 10 16.0934 0 0
1:54 pm 13:54 Cloudy 81 27.2 71 21.7 72 72 VRB 3 6 30.06 1018 10 16.0934 0 0
2:54 pm 14:54 Partly Cloudy 84 28.9 71 21.7 65 65 VRB 3 6 30.04 1017 10 16.0934 0 0
3:54 pm 15:54 Partly Cloudy 87 30.6 72 22.2 61 61 VRB 5 7 30.01 1016 10 16.0934 0 0
4:54 pm 16:54 Partly Cloudy 88 31.1 72 22.2 59 59 E 3 6 29.99 1016 10 16.0934 0 0
5:54 pm 17:54 Partly Cloudy 86 30 74 23.3 67 67 E 8 13 29.98 1015 10 16.0934 0 0
6:54 pm 18:54 Mostly Cloudy 85 29.4 74 23.3 70 70 S 7 11 29.99 1016 10 16.0934 0 0
7:54 pm 19:54 Mostly Cloudy 83 28.3 72 22.2 70 70 S 3 6 29.99 1016 10 16.0934 0 0
8:54 pm 20:54 Partly Cloudy 82 27.8 73 22.8 74 74 SE 5 7 29.99 1016 10 16.0934 0 0
9:54 pm 21:54 Mostly Cloudy 80 26.7 72 22.2 76 76 SE 6 9 30 1016 10 16.0934 0 0
10:54 pm 22:54 Mostly Cloudy 80 26.7 74 23.3 82 82 SE 6 9 30.01 1016 10 16.0934 0 0
11:54 pm 23:54 Mostly Cloudy 79 26.1 74 23.3 85 85 Calm 30.01 1016 10 16.0934 0 0

Powered by AerisWeather